11.05.2024;15:00;39
11.05.2024;14:00;38
11.05.2024;13:00;42
11.05.2024;12:00;34
11.05.2024;11:00;45
11.05.2024;10:00;49
11.05.2024;09:00;43
11.05.2024;08:00;25
11.05.2024;07:00;16
11.05.2024;06:00;11
11.05.2024;05:00;8
11.05.2024;04:00;9
11.05.2024;03:00;10
11.05.2024;02:00;11
11.05.2024;01:00;14
11.05.2024;00:00;16
10.05.2024;23:00;32
10.05.2024;22:00;31
10.05.2024;21:00;30
10.05.2024;20:00;27
10.05.2024;19:00;60
10.05.2024;18:00;41
10.05.2024;17:00;36
10.05.2024;16:00;38
10.05.2024;15:00;43
10.05.2024;14:00;35
10.05.2024;13:00;41
10.05.2024;12:00;44
10.05.2024;11:00;51
10.05.2024;10:00;55
10.05.2024;09:00;46
10.05.2024;08:00;36
10.05.2024;07:00;20
10.05.2024;06:00;15
10.05.2024;05:00;11
10.05.2024;04:00;8
10.05.2024;03:00;9
10.05.2024;02:00;9
10.05.2024;01:00;14
10.05.2024;00:00;19
09.05.2024;23:00;21
09.05.2024;22:00;24
09.05.2024;21:00;26
09.05.2024;20:00;19
09.05.2024;19:00;24
09.05.2024;18:00;29
09.05.2024;17:00;30
09.05.2024;16:00;23
